Weather History for Missoula, MT

Change the Weather History Date:

Friday, November 9, 2012

  Actual Average Record
Temperature  
Mean Temperature 28 °F 36 °F  
Max Temperature 33 °F 45 °F 68 °F (1894)
Min Temperature 22 °F 27 °F 2 °F (1950)
Degree Days  
Heating Degree Days 37 29  
Month to date heating degree days 203 247  
Since 1 July heating degree days 1006 1189  
Cooling Degree Days 0 0  
Month to date cooling degree days 0 0  
Year to date cooling degree days 415 332  
Moisture  
Dew Point 22 °F    
Average Humidity 75    
Maximum Humidity 92    
Minimum Humidity 58    
Precipitation  
Precipitation T in 0.03 in 0.21 in (1947)
Month to date precipitation 0.20 0.28  
Year to date precipitation 12.53 12.36  
Snow  
Snow 0.10 in - - ()
Month to date snowfall 0.1  
Year to date snowfall 33.3  
Since 1 July snowfall 4.1  
Snow Depth 0.00 in    
Sea Level Pressure  
Sea Level Pressure 29.83 in    
Wind  
Wind Speed 8 mph (East)    
Max Wind Speed 18 mph    
Max Gust Speed 23 mph    
Visibility 9 miles    
Events Snow    
T = Trace of Precipitation, MM = Missing Value Source: NWS Daily Summary

Daily Weather History Graph

Daily Weather History Graph

Search for Another Location

Airport:

Trip Planner

Search our weather history database for the weather conditions in past years. The results will help you decide how hot, cold, wet, or windy it might be!

Date:

Astronomy

Nov. 09, 2012 Rise Set
Actual Time 7:31 AM MST 5:08 PM MST
Civil Twilight 6:58 AM MST 5:40 PM MST
Nautical Twilight 6:22 AM MST 6:17 PM MST
Astronomical Twilight 5:46 AM MST 6:52 PM MST
Moon 2:17 AM MST (11/9) 2:38 PM MST (11/9)
Length of Visible Light 10h 41m
Length of Day
9h 36m
Waning Crescent, 22% of the Moon is Illuminated
Nov 9
Waning Crescent
Nov 13
New
Nov 20
First Quarter
Nov 28
Full
Dec 6
Last Quarter

Hourly Weather History & Observations

Time (MST) Temp. Windchill Dew Point Humidity Pressure Visibility Wind Dir Wind Speed Gust Speed Precip Events Conditions
12:31 AM 30.2 °F 25.4 °F 28.4 °F 93% 29.73 in 8.0 mi Variable 4.6 mph - 0.00 in Snow Light Snow
12:53 AM 32.0 °F 23.6 °F 25.0 °F 75% 29.79 in 10.0 mi SE 10.4 mph - 0.00 in   Overcast
1:53 AM 30.9 °F - 27.0 °F 85% 29.78 in 10.0 mi Calm Calm - N/A   Overcast
2:53 AM 30.9 °F 27.5 °F 26.1 °F 82% 29.78 in 10.0 mi NW 3.5 mph - N/A   Overcast
3:53 AM 32.0 °F - 26.1 °F 79% 29.80 in 10.0 mi Calm Calm - N/A   Overcast
4:53 AM 30.9 °F - 27.0 °F 85% 29.81 in 10.0 mi Calm Calm - N/A   Overcast
5:53 AM 30.9 °F 27.5 °F 27.0 °F 85% 29.81 in 10.0 mi North 3.5 mph - N/A   Overcast
6:53 AM 30.9 °F 27.5 °F 27.0 °F 85% 29.81 in 10.0 mi NNE 3.5 mph - N/A   Overcast
7:53 AM 30.0 °F 26.5 °F 28.0 °F 92% 29.82 in 10.0 mi NW 3.5 mph - N/A   Overcast
8:12 AM 30.2 °F - 28.4 °F 93% 29.75 in 7.0 mi Calm Calm - N/A   Overcast
8:53 AM 30.9 °F - 28.0 °F 89% 29.82 in 6.0 mi Calm Calm - N/A   Overcast
9:31 AM 32.0 °F - 28.4 °F 87% 29.77 in 10.0 mi Calm Calm - N/A   Overcast
9:53 AM 30.9 °F 27.5 °F 27.0 °F 85% 29.85 in 8.0 mi WNW 3.5 mph - N/A   Overcast
10:14 AM 32.0 °F - 24.8 °F 75% 29.77 in 5.0 mi Calm Calm - 0.00 in Snow Light Snow
10:26 AM 30.2 °F 23.4 °F 26.6 °F 86% 29.77 in 2.5 mi Variable 6.9 mph - 0.00 in Snow Light Snow
10:53 AM 30.0 °F - 26.1 °F 85% 29.86 in 2.5 mi Calm Calm - 0.00 in Snow Light Snow
11:09 AM 30.2 °F 26.7 °F 24.8 °F 80% 29.78 in 1.2 mi SE 3.5 mph - 0.00 in Snow Light Snow
11:16 AM 30.2 °F 24.3 °F 24.8 °F 80% 29.78 in 2.0 mi SSE 5.8 mph - 0.00 in Snow Light Snow
11:23 AM 30.2 °F 26.7 °F 23.0 °F 75% 29.78 in 3.0 mi South 3.5 mph - 0.00 in Snow Light Snow
11:53 AM 32.0 °F 23.6 °F 21.9 °F 66% 29.86 in 10.0 mi ESE 10.4 mph - 0.00 in   Overcast
12:15 PM 32.0 °F - 24.8 °F 75% 29.78 in 10.0 mi Calm Calm - N/A   Overcast
12:53 PM 30.9 °F 21.2 °F 21.9 °F 69% 29.86 in 10.0 mi ESE 12.7 mph 17.3 mph N/A   Overcast
1:27 PM 30.2 °F 19.3 °F 19.4 °F 64% 29.78 in 10.0 mi ESE 15.0 mph - N/A   Overcast
1:53 PM 30.9 °F 22.2 °F 19.9 °F 64% 29.86 in 10.0 mi East 10.4 mph - N/A   Overcast
2:15 PM 32.0 °F 26.4 °F 23.0 °F 69% 29.78 in 10.0 mi North 5.8 mph - N/A   Overcast
2:26 PM 30.2 °F 21.9 °F 23.0 °F 75% 29.78 in 10.0 mi NNE 9.2 mph - N/A   Overcast
2:35 PM 30.2 °F 22.6 °F 23.0 °F 75% 29.79 in 10.0 mi NNE 8.1 mph - N/A   Overcast
2:42 PM 30.2 °F 23.4 °F 23.0 °F 75% 29.78 in 10.0 mi NNE 6.9 mph - N/A   Overcast
2:53 PM 30.0 °F 26.5 °F 23.0 °F 75% 29.86 in 10.0 mi North 3.5 mph - N/A   Overcast
3:53 PM 30.0 °F 20.0 °F 18.0 °F 61% 29.88 in 10.0 mi ESE 12.7 mph - N/A   Overcast
4:17 PM 28.4 °F - 17.6 °F 64% 29.79 in 10.0 mi North - - N/A   Overcast
4:53 PM 28.0 °F 18.1 °F 17.1 °F 63% 29.89 in 10.0 mi ESE 11.5 mph - N/A   Overcast
5:04 PM 28.4 °F - 17.6 °F 64% 29.81 in 10.0 mi North - - N/A   Overcast
5:51 PM 26.6 °F 15.7 °F 15.8 °F 64% 29.82 in 10.0 mi ESE 12.7 mph - N/A   Overcast
5:53 PM 27.0 °F 16.7 °F 16.0 °F 63% 29.91 in 10.0 mi ESE 11.5 mph - N/A   Overcast
6:53 PM 26.1 °F 12.7 °F 15.1 °F 63% 29.93 in 10.0 mi ESE 18.4 mph 23.0 mph N/A   Overcast
7:05 PM 26.6 °F 14.3 °F 15.8 °F 64% 29.84 in 10.0 mi ESE 16.1 mph - N/A   Overcast
7:28 PM 24.8 °F 12.4 °F 15.8 °F 69% 29.85 in 10.0 mi ESE 15.0 mph - N/A   Overcast
7:53 PM 24.8 °F 11.9 °F 15.8 °F 69% 29.85 in 10.0 mi ESE 16.1 mph - N/A   Overcast
8:41 PM 24.8 °F 11.9 °F 15.8 °F 69% 29.86 in 10.0 mi SE 16.1 mph - N/A   Overcast
8:53 PM 24.1 °F 11.0 °F 15.1 °F 69% 29.96 in 10.0 mi ESE 16.1 mph - N/A   Overcast
9:53 PM 23.0 °F 11.1 °F 14.0 °F 68% 29.97 in 10.0 mi SE 12.7 mph - N/A   Overcast
10:53 PM 23.0 °F 9.6 °F 12.9 °F 65% 29.98 in 10.0 mi ESE 16.1 mph - N/A   Overcast
11:53 PM 21.9 °F 8.2 °F 12.0 °F 66% 29.98 in 10.0 mi SE 16.1 mph - N/A   Overcast